Regional Weather Roundup
Issued by NWS

Home | Current Version | Previous Version | Text Only | Print | Product List | Glossary On
Versions: 1 2 3 4 5 6 7 8 9 10 11 12 13 14 15 16 17 18 19 20 21 22 23 24 25 26 27 28 29 30 31 32 33 34 35 36 37 38 39 40 41 42 43 44 45 46 47 48 49 50
000
ASCA44 KEWX 111920
RWRMX

LATIN AMERICA AND CARIBBEAN REGIONAL WEATHER ROUNDUP
NATIONAL WEATHER SERVICE AUSTIN/SAN ANTONIO TX
100 PM CST THU FEB 11 2016

NOTE: "FAIR" INDICATED FEW OR NO CLOUDS BELOW 12,000 FEET WITH NO
SIGNIFICANT WEATHER AND/OR OBSTRUCTIONS TO VISIBILITY.

BAJA CALIFORNIA

CITY           SKY/WX    TMP DP  RH WIND       PRES   REMARKS
LORETO         MOSUNNY   84  61  45 N10       30.03F
LA PAZ         MOSUNNY   82  36  18 N9        30.07F
MEXICALI       SUNNY     75  27  16 NW5       30.16F
S.J. DEL CABO  MOSUNNY   88  52  29 SE12      30.03F
TIJUANA        SUNNY     82  23  11 N7        30.14S

NORTHWESTERN MEXICO

CITY           SKY/WX    TMP DP  RH WIND       PRES   REMARKS
CULIACAN       MOSUNNY   86  59  39 S7        30.01F
DURANGO        SUNNY     66  23  19 E6        30.36F
GUAYMAS        MOSUNNY   81  50  34 SW12      29.99F
HERMOSILLO     MOSUNNY   90  23   9 CALM      30.09F
CD. JUAREZ     SUNNY     63  36  36 CALM      30.30S
LOS MOCHIS     SUNNY     82  46  28 NW8       30.02F
OBREGON        MOSUNNY   84  39  20 W6        29.99F

NORTHEASTERN MEXICO

CITY           SKY/WX    TMP DP  RH WIND       PRES   REMARKS
CHIHUAHUA      MOSUNNY   70  19  14 NE7       30.30F
MATAMOROS      SUNNY     77  57  50 SE17      30.20F
MONCLOVA         N/A    N/A N/A N/A MISG        N/A
MONTERREY      SUNNY     82  23  11 NE7       30.12F
NUEVO LAREDO   SUNNY     79  39  24 SE6       30.15F
PIEDRAS NEGRAS SUNNY     81  43  26 CALM      30.15F
REYNOSA        SUNNY     79  28  15 S9G21     30.14F
SALTILLO       SUNNY     77  39  25 CALM      30.33F
TORREON        MOSUNNY   70  30  23 CALM      30.27F
CD. VICTORIA   SUNNY     77  43  29 SE13G24   30.15F

WESTERN MEXICO

CITY           SKY/WX    TMP DP  RH WIND       PRES   REMARKS
AGUASCALIENTES SUNNY     66  23  19 NE7       30.46R
COLIMA         MOSUNNY   84  50  30 S7        30.05F
DEL BAJIO        N/A    N/A N/A N/A MISG        N/A
GUADALAJARA    MOSUNNY   72  32  23 CALM      30.28F
MANZANILLO     MOSUNNY   86  73  66 SW7       29.92F HX  93
MAZATLAN       SUNNY     84  64  51 S9        30.01F
P. VALLARTA    MOSUNNY   81  64  57 SW9       29.97F
URUAPAN        SUNNY     72  45  37 SW12      30.21F
ZACATECAS      SUNNY     64  25  22 E12       30.38F

CENTRAL MEXICO

CITY           SKY/WX    TMP DP  RH WIND       PRES   REMARKS
CUERNAVACA       N/A    N/A N/A N/A MISG        N/A
MEXICO CITY    MOSUNNY   63  27  25 NE8       30.35F
MORELIA        SUNNY     66  36  32 W3        30.30F
POZA RICA      MOSUNNY   79  54  41 CALM      30.26F
PUEBLA         SUNNY     70  23  17 CALM      30.33F
QUERETARO      SUNNY     64  32  29 N3        30.36F
S. LUIS POTOSI SUNNY     64  21  19 N5        30.34F
TAMPICO        SUNNY     75  46  35 S14       30.21F
TOLUCA         MOSUNNY   68  27  21 N5        30.38F

SOUTHERN MEXICO

CITY           SKY/WX    TMP DP  RH WIND       PRES   REMARKS
ACAPULCO       SUNNY     86  63  45 SW9       29.96S
B. DE HUATULCO MOSUNNY   88  66  48 S8        29.98F HX  90
OAXACA         SUNNY     68  30  24 S6        30.28F
P. ESCONDIDO   SUNNY     84  57  39 W7        30.03F
VERACRUZ       SUNNY     75  54  46 E6        30.22F
ZIHUATANEJO    MOSUNNY   88  73  62 SW12      29.95F HX  96

YUCATAN PENINSULA

CITY           SKY/WX    TMP DP  RH WIND       PRES   REMARKS
CAMPECHE       MOSUNNY   75  48  38 E6        30.19F
CANCUN         PTSUNNY   75  59  57 NE6       30.21F
CHETUMAL       MOSUNNY   77  57  50 NW7       30.19F
CD. DEL CARMEN MOSUNNY   70  54  56 N7        30.23F
COZUMEL        MOSUNNY   73  61  64 NE8G20    30.20F
MERIDA         MOSUNNY   79  50  36 N5        30.20F
MINATITLAN     MOSUNNY   73  61  64 N12       30.16F
TAPACHULA      SUNNY     86  72  62 W12       29.93F HX  92
TUX. GUTIERREZ SUNNY     73  45  35 SW3       30.13F
VILLAHERMOSA   MOSUNNY   75  55  50 E14       30.24F

CENTRAL AMERICA

CITY           SKY/WX    TMP DP  RH WIND       PRES   REMARKS
BELIZE CITY    MOSUNNY   81  61  50 N7        30.17F
MANAGUA        PTCLDY    88  66  48 NE21      29.89F HX  90

CARIBBEAN

CITY           SKY/WX    TMP DP  RH WIND       PRES   REMARKS
ARUBA          MOSUNNY   88  73  62 E21       29.92S HX  96
KINGSTON       MOSUNNY   84  70  61 SW10      29.97F
NASSAU         PTSUNNY   72  34  25 N7        30.24F
SAN JUAN       MOSUNNY   82  68  61 NE15      30.03F
SANTO DOMINGO  MOSUNNY   84  70  61 SE7       30.00S
ST. CROIX      MOSUNNY   84  70  61 E15       30.03
ST. KITTS      PTSUNNY   81  70  69 NE5       30.03S
ST. MAARTEN    PTSUNNY   79  72  78 SE7       30.03F
ST. THOMAS     SUNNY     81  68  65 SE13      30.03

$$




USA.gov is the U.S. government's official web portal to all federal, state and local government web resources and services.